Location: *
(50.9167°S, 179.4000°W)
Time: 21:57:51
(UTC+00:00)

ATLAS 3B R/B - Pass Details

Date: 03 March 2024
Orbit: 949 x 1245 km, 63.8° (Epoch: 14 April)

Event Time Altitude Azimuth Distance (km) Brightness Sun altitude
Rises 15:58:14 0° 228° (SW) 3,674 5.3 -14.6°
Reaches altitude 10° 16:01:14 10° 240° (WSW) 2,708 4.5 -14.2°
Maximum altitude 16:06:13 25° 293° (WNW) 1,816 3.3 -13.5°
Drops below altitude 10° 16:11:12 10° 346° (NNW) 2,703 4.4 -12.8°
Sets 16:14:12 0° 359° (N) 3,667 5.2 -12.4°
